Home > Weather > Lens > Past weeks

Flag for France Weather for the Past 2 Weeks in Lens, France

Now
43 °F

Rain. Broken clouds.


Feels Like: 38 °F
Forecast: 38 / 46 °F
Wind: 8 mph from Southeast

Location: Lille Airport

Current Time: Feb 9, 2016 at 12:10:46 PM

Latest Report: Feb 9, 2016 at 11:00 AM


Visibility: 4 mi

Pressure: 29.03 "Hg

Humidity: 93%

Dew point: 41 °F

Location of LensLocation

Historic Weather in Lens — Graph

°F

Lens Temperature Yesterday

Maximum temperature yesterday: 50 °F (at 6:30 AM)
Minimum temperature yesterday: 41 °F (at 10:30 AM)
Average temperature yesterday: 47 °F

High & Low Weather Summary for the Past Weeks

 TemperatureHumidityPressure
High54 °F (Jan 25, 1:30 PM)100% (Jan 26, 8:00 AM)30.36 "Hg (Jan 26, 8:00 AM)
Low36 °F (Feb 4, 2:00 AM)46% (Jan 28, 3:00 PM)29.03 "Hg (Feb 9, 11:00 AM)
Average47 °F83%29.96 "Hg
* Reported Jan 25 11:00 AM — Feb 9 11:00 AM, Lens, Weather by CustomWeather, © 2016

Note: Actual official high and low records may vary slightly from our data, if they occured in-between our weather recording intervals... More about our weather records

Advertising

Lens Weather History for the Previous 24 Hours

 ConditionsComfort  
Time TempWeatherWind HumidityBarometerVisibility
11:00 AM
Tue, Feb 9
43 °FRain. Broken clouds.8 mph93%29.03 "Hg4 mi
10:30 AM43 °FLight rain. Partly sunny.12 mph93%29.06 "HgN/A
10:00 AM43 °FLight rain. Mostly cloudy.7 mph93%29.12 "Hg4 mi
9:30 AM43 °FRain. Mostly cloudy.8 mph93%29.18 "Hg4 mi
9:00 AM43 °FLight rain. Mostly cloudy.9 mph93%29.21 "Hg4 mi
8:30 AM43 °FLight rain. Broken clouds.9 mph87%29.24 "Hg5 mi
8:00 AM43 °FLight rain. Passing clouds.9 mph87%29.27 "HgN/A
7:30 AM43 °FMostly cloudy.13 mph87%29.33 "HgN/A
7:00 AM43 °FClear.15 mph81%29.36 "Hg10 mi
6:30 AM43 °FClear.16 mph81%29.36 "Hg10 mi
6:00 AM43 °FClear.17 mph81%29.39 "Hg10 mi
5:30 AM43 °FPassing clouds.15 mph81%29.42 "HgN/A
4:30 AM43 °FMostly cloudy.10 mph81%29.45 "HgN/A
4:00 AM43 °FLight rain. Mostly cloudy.16 mph87%29.47 "HgN/A
3:30 AM43 °FLight rain. Passing clouds.16 mph87%29.47 "HgN/A
2:30 AM43 °FLight rain. Passing clouds.15 mph87%29.50 "HgN/A
2:00 AM43 °FLight rain. Passing clouds.21 mph87%29.50 "HgN/A
1:30 AM43 °FPassing clouds.18 mph81%29.50 "HgN/A
1:00 AM43 °FPassing clouds.22 mph81%29.50 "HgN/A
12:30 AM45 °FPartly cloudy.24 mph76%29.50 "HgN/A
12:00 AM45 °FPassing clouds.23 mph76%29.47 "HgN/A
11:30 PM
Mon, Feb 8
46 °FPartly cloudy.25 mph71%29.47 "HgN/A
11:00 PM45 °FPassing clouds.25 mph76%29.47 "HgN/A
10:30 PM46 °FPartly cloudy.29 mph71%29.47 "HgN/A
10:00 PM46 °FPartly cloudy.30 mph71%29.47 "HgN/A
9:30 PM46 °FMostly cloudy.29 mph71%29.45 "HgN/A
9:00 PM48 °FMostly cloudy.32 mph66%29.45 "HgN/A
8:30 PM48 °FMostly cloudy.30 mph66%29.45 "HgN/A
8:00 PM48 °FMostly cloudy.30 mph66%29.42 "HgN/A
7:30 PM46 °FMostly cloudy.31 mph71%29.42 "HgN/A
7:00 PM46 °FPassing clouds.32 mph71%29.39 "HgN/A
6:30 PM46 °FMostly cloudy.33 mph71%29.36 "HgN/A
6:00 PM48 °FMostly cloudy.33 mph66%29.36 "HgN/A
5:30 PM48 °FMostly cloudy.32 mph66%29.33 "HgN/A
5:00 PM48 °FPartly sunny.33 mph66%29.33 "HgN/A
4:30 PM46 °FPartly sunny.43 mph71%29.33 "Hg5 mi
4:00 PM48 °FMostly cloudy.33 mph66%29.30 "HgN/A
3:30 PM48 °FMostly cloudy.31 mph66%29.30 "HgN/A
3:00 PM48 °FBroken clouds.32 mph66%29.30 "HgN/A
2:30 PM46 °FLight rain. Fog.35 mph76%29.30 "Hg3 mi
2:00 PM46 °FBroken clouds.32 mph71%29.30 "Hg4 mi
1:30 PM46 °FPassing clouds.26 mph71%29.30 "HgN/A
1:00 PM46 °FPartly sunny.30 mph76%29.30 "HgN/A
12:30 PM48 °FPartly sunny.33 mph66%29.30 "HgN/A
12:00 PM48 °FPartly sunny.23 mph66%29.27 "HgN/A
Weather by CustomWeather, © 2016

See weather overviewHow to use our weather pages